• In Österreich
  • Länderverzeichnis
  • Für 7 Tage
  • Wassertemperatur
  • Satellitenkarten
  • Wetterkarte
  • News
  • Widgets
  • user-avatar
    Anmelden

    Stündliche Wetter Suluova

    Heute, 19 November, Sonntag

    Zeit Temperatur Niederschläge Wind Luftdruck Luftfeuchtigkeit
    00:00 +13°C° 0 mm 2 m/S 711 mmHg 47%
    01:00 +12°C° 0 mm 2 m/S 711 mmHg 48%
    02:00 +12°C° 0 mm 3 m/S 711 mmHg 47%
    03:00 +11°C° 0 mm 3 m/S 710 mmHg 49%
    04:00 +12°C° 0 mm 2 m/S 710 mmHg 50%
    05:00 +10°C° 0 mm 2 m/S 710 mmHg 52%
    06:00 +12°C° 0 mm 2 m/S 710 mmHg 50%
    07:00 +13°C° 0 mm 2 m/S 710 mmHg 49%
    08:00 +13°C° 0 mm 2 m/S 710 mmHg 48%
    09:00 +15°C° 0 mm 2 m/S 710 mmHg 43%
    10:00 +17°C° 0 mm 2 m/S 710 mmHg 38%
    11:00 +19°C° 0 mm 3 m/S 710 mmHg 32%
    12:00 +20°C° 0 mm 3 m/S 710 mmHg 32%
    13:00 +20°C° 0 mm 3 m/S 709 mmHg 31%
    14:00 +21°C° 0 mm 3 m/S 709 mmHg 30%
    15:00 +19°C° 0,1 mm 3 m/S 709 mmHg 35%
    16:00 +17°C° 0,1 mm 2 m/S 709 mmHg 40%
    17:00 +16°C° 0,1 mm 1 m/S 708 mmHg 45%
    18:00 +15°C° 0,1 mm 2 m/S 709 mmHg 47%
    19:00 +14°C° 0,1 mm 2 m/S 709 mmHg 50%
    20:00 +14°C° 0,1 mm 2 m/S 709 mmHg 53%
    21:00 +13°C° 0 mm 2 m/S 709 mmHg 55%
    22:00 +13°C° 0 mm 2 m/S 709 mmHg 57%
    23:00 +13°C° 0 mm 2 m/S 709 mmHg 59%

    Morgen, 20 November, Montag

    Zeit Temperatur Niederschläge Wind Luftdruck Luftfeuchtigkeit
    00:00 +12°C° 0 mm 2 m/S 709 mmHg 61%
    01:00 +11°C° 0 mm 3 m/S 709 mmHg 63%
    02:00 +11°C° 0 mm 3 m/S 709 mmHg 64%
    03:00 +10°C° 0 mm 3 m/S 709 mmHg 66%
    04:00 +10°C° 0 mm 3 m/S 709 mmHg 67%
    05:00 +10°C° 0 mm 3 m/S 709 mmHg 68%
    06:00 +10°C° 0 mm 3 m/S 709 mmHg 66%
    07:00 +11°C° 0 mm 3 m/S 709 mmHg 64%
    08:00 +11°C° 0 mm 4 m/S 709 mmHg 62%
    09:00 +13°C° 0 mm 5 m/S 708 mmHg 57%
    10:00 +14°C° 0 mm 6 m/S 708 mmHg 52%
    11:00 +16°C° 0 mm 7 m/S 708 mmHg 47%
    12:00 +16°C° 0 mm 6 m/S 708 mmHg 47%
    13:00 +16°C° 0 mm 6 m/S 707 mmHg 46%
    14:00 +16°C° 0 mm 5 m/S 707 mmHg 45%
    15:00 +15°C° 0,2 mm 4 m/S 707 mmHg 51%
    16:00 +14°C° 0,2 mm 3 m/S 707 mmHg 56%
    17:00 +14°C° 0,2 mm 2 m/S 706 mmHg 62%
    18:00 +13°C° 0,9 mm 2 m/S 706 mmHg 68%
    19:00 +13°C° 0,9 mm 2 m/S 706 mmHg 74%
    20:00 +12°C° 0,9 mm 2 m/S 706 mmHg 80%
    21:00 +12°C° 0,4 mm 2 m/S 705 mmHg 81%
    22:00 +10°C° 0,4 mm 2 m/S 705 mmHg 83%
    23:00 +10°C° 0,4 mm 2 m/S 705 mmHg 84%

    übermorgen, 21 November, Dienstag

    Zeit Temperatur Niederschläge Wind Luftdruck Luftfeuchtigkeit
    00:00 +10°C° 0,2 mm 2 m/S 705 mmHg 84%
    01:00 +11°C° 0,2 mm 1 m/S 704 mmHg 84%
    02:00 +11°C° 0,2 mm 1 m/S 704 mmHg 84%
    03:00 +10°C° 1,5 mm 1 m/S 704 mmHg 86%
    04:00 +10°C° 1,5 mm 1 m/S 704 mmHg 88%
    05:00 +8°C° 1,5 mm 2 m/S 705 mmHg 90%
    06:00 +8°C° 2,1 mm 3 m/S 705 mmHg 89%
    07:00 +7°C° 2,1 mm 4 m/S 706 mmHg 88%
    08:00 +5°C° 2,1 mm 6 m/S 706 mmHg 86%
    09:00 +5°C° 2 mm 6 m/S 706 mmHg 83%
    10:00 +4°C° 2 mm 7 m/S 707 mmHg 81%
    11:00 +4°C° 2 mm 8 m/S 707 mmHg 78%
    12:00 +3°C° 1 mm 7 m/S 708 mmHg 79%
    13:00 +3°C° 1 mm 7 m/S 708 mmHg 80%
    14:00 +3°C° 1 mm 6 m/S 709 mmHg 80%
    15:00 +3°C° 0,7 mm 5 m/S 710 mmHg 83%
    16:00 +4°C° 0,7 mm 4 m/S 711 mmHg 86%
    17:00 +3°C° 0,7 mm 3 m/S 712 mmHg 89%
    18:00 +4°C° 0,3 mm 2 m/S 712 mmHg 88%
    19:00 +4°C° 0,3 mm 2 m/S 712 mmHg 88%
    20:00 +4°C° 0,3 mm 2 m/S 713 mmHg 88%
    21:00 +4°C° 0,1 mm 1 m/S 713 mmHg 87%
    22:00 +4°C° 0,1 mm 1 m/S 713 mmHg 86%
    23:00 +4°C° 0,1 mm 1 m/S 713 mmHg 86%

    22 November, Mittwoch

    Zeit Temperatur Niederschläge Wind Luftdruck Luftfeuchtigkeit
    00:00 +3°C° 0 mm 1 m/S 713 mmHg 85%
    01:00 +3°C° 0 mm 1 m/S 714 mmHg 85%
    02:00 +3°C° 0 mm 1 m/S 714 mmHg 85%
    03:00 +2°C° 0 mm 1 m/S 714 mmHg 85%
    04:00 +2°C° 0 mm 1 m/S 714 mmHg 85%
    05:00 +2°C° 0 mm 1 m/S 714 mmHg 84%
    06:00 +1°C° 0 mm 2 m/S 714 mmHg 83%
    07:00 +2°C° 0 mm 2 m/S 715 mmHg 82%
    08:00 +2°C° 0 mm 2 m/S 715 mmHg 80%
    09:00 +3°C° 0 mm 2 m/S 715 mmHg 76%
    10:00 +3°C° 0 mm 3 m/S 715 mmHg 72%
    11:00 +4°C° 0 mm 3 m/S 715 mmHg 68%
    12:00 +5°C° 0 mm 3 m/S 715 mmHg 66%
    13:00 +5°C° 0 mm 3 m/S 714 mmHg 65%
    14:00 +5°C° 0 mm 3 m/S 714 mmHg 63%
    15:00 +5°C° 0,1 mm 3 m/S 714 mmHg 67%
    16:00 +4°C° 0,1 mm 3 m/S 714 mmHg 71%
    17:00 +4°C° 0,1 mm 3 m/S 714 mmHg 74%
    18:00 +3°C° 0,1 mm 3 m/S 715 mmHg 76%
    19:00 +3°C° 0,1 mm 3 m/S 715 mmHg 77%
    20:00 +3°C° 0,1 mm 3 m/S 715 mmHg 78%
    21:00 +3°C° 0,4 mm 3 m/S 715 mmHg 80%
    22:00 +3°C° 0,4 mm 3 m/S 715 mmHg 81%
    23:00 +4°C° 0,4 mm 2 m/S 715 mmHg 82%

    23 November, Donnerstag

    Zeit Temperatur Niederschläge Wind Luftdruck Luftfeuchtigkeit
    00:00 +4°C° 0,4 mm 2 m/S 715 mmHg 83%
    01:00 +4°C° 0,4 mm 2 m/S 716 mmHg 85%
    02:00 +4°C° 0,4 mm 2 m/S 716 mmHg 86%
    03:00 +5°C° 0,2 mm 1 m/S 716 mmHg 87%
    04:00 +5°C° 0,2 mm 1 m/S 716 mmHg 88%
    05:00 +5°C° 0,2 mm 1 m/S 717 mmHg 88%
    06:00 +5°C° 0,2 mm 1 m/S 717 mmHg 88%
    07:00 +5°C° 0,2 mm 1 m/S 718 mmHg 88%
    08:00 +6°C° 0,2 mm 1 m/S 718 mmHg 88%
    09:00 +6°C° 0,2 mm 1 m/S 718 mmHg 85%
    10:00 +7°C° 0,2 mm 1 m/S 719 mmHg 83%
    11:00 +7°C° 0,2 mm 1 m/S 719 mmHg 81%
    12:00 +7°C° 0,2 mm 1 m/S 719 mmHg 80%
    13:00 +7°C° 0,2 mm 1 m/S 719 mmHg 79%
    14:00 +7°C° 0,2 mm 1 m/S 719 mmHg 78%
    15:00 +7°C° 0,1 mm 1 m/S 719 mmHg 81%
    16:00 +6°C° 0,1 mm 1 m/S 719 mmHg 83%
    17:00 +6°C° 0,1 mm 1 m/S 719 mmHg 86%
    18:00 +5°C° 0 mm 1 m/S 720 mmHg 87%
    19:00 +5°C° 0 mm 1 m/S 720 mmHg 88%
    20:00 +4°C° 0 mm 1 m/S 720 mmHg 89%
    21:00 +3°C° 0 mm 0 m/S 720 mmHg 89%
    22:00 +3°C° 0 mm 0 m/S 721 mmHg 90%
    23:00 +2°C° 0 mm 0 m/S 721 mmHg 90%

    24 November, Freitag

    Zeit Temperatur Niederschläge Wind Luftdruck Luftfeuchtigkeit
    00:00 +2°C° 0 mm 0 m/S 721 mmHg 90%
    01:00 +3°C° 0 mm 1 m/S 721 mmHg 90%
    02:00 +3°C° 0 mm 1 m/S 721 mmHg 90%
    03:00 +3°C° 0 mm 1 m/S 721 mmHg 90%
    04:00 +2°C° 0 mm 1 m/S 721 mmHg 90%
    05:00 +2°C° 0 mm 1 m/S 721 mmHg 90%
    06:00 +3°C° 0 mm 1 m/S 722 mmHg 88%
    07:00 +3°C° 0 mm 1 m/S 722 mmHg 86%
    08:00 +4°C° 0 mm 1 m/S 722 mmHg 84%
    09:00 +5°C° 0 mm 1 m/S 722 mmHg 80%
    10:00 +6°C° 0 mm 1 m/S 722 mmHg 76%
    11:00 +7°C° 0 mm 1 m/S 722 mmHg 72%
    12:00 +8°C° 0 mm 1 m/S 722 mmHg 69%
    13:00 +8°C° 0 mm 1 m/S 721 mmHg 67%
    14:00 +8°C° 0 mm 0 m/S 721 mmHg 64%
    15:00 +8°C° 0 mm 1 m/S 721 mmHg 68%
    16:00 +6°C° 0 mm 1 m/S 721 mmHg 72%
    17:00 +5°C° 0 mm 1 m/S 721 mmHg 75%
    18:00 +5°C° 0 mm 1 m/S 721 mmHg 76%
    19:00 +5°C° 0 mm 1 m/S 722 mmHg 78%
    20:00 +4°C° 0 mm 1 m/S 722 mmHg 79%
    21:00 +4°C° 0 mm 1 m/S 722 mmHg 79%
    22:00 +4°C° 0 mm 1 m/S 722 mmHg 79%
    23:00 +4°C° 0 mm 1 m/S 722 mmHg 79%
    Mehr zeigen